This is the latest recevied weather packets stored in our database for station/object IK0TIX. If no packets are shown the sender has not sent any weather packets the latest 10 day(s).
| Time | Temp. | Humidity | Pressure | Rain* | Wind** | Luminosity | Snow |
|---|---|---|---|---|---|---|---|
| 1777432796 | 13.33° C | 69% | 1016.1 hPa | 0 mm | - | - | - |
| 1777432176 | 13.33° C | 68% | 1016.2 hPa | 0 mm | - | - | - |
| 1777431877 | 13.89° C | 69% | 1016.3 hPa | 0 mm | - | - | - |
| 1777431285 | 13.89° C | 68% | 1016.2 hPa | 0 mm | - | - | - |
| 1777430702 | 13.89° C | 67% | 1016.3 hPa | 0 mm | - | - | - |
| 1777430370 | 13.89° C | 68% | 1016.3 hPa | 0 mm | - | - | - |
| 1777428897 | 13.89° C | 67% | 1016.1 hPa | 0 mm | - | - | - |
| 1777428307 | 14.44° C | 67% | 1016.1 hPa | 0 mm | - | - | - |
| 1777427671 | 14.44° C | 67% | 1016 hPa | 0 mm | - | - | - |
| 1777427383 | 14.44° C | 66% | 1016 hPa | 0 mm | - | - | - |
| 1777427108 | 14.44° C | 66% | 1015.9 hPa | 0 mm | - | - | - |
| 1777426778 | 14.44° C | 65% | 1016 hPa | 0 mm | - | - | - |
| 1777425887 | 14.44° C | 65% | 1016 hPa | 0 mm | - | - | - |
| 1777424374 | 15° C | 65% | 1016 hPa | 0 mm | - | - | - |
| 1777417814 | 16.11° C | 64% | 1016.3 hPa | 0 mm | - | - | - |
| 1777417484 | 16.11° C | 64% | 1016.3 hPa | 0 mm | - | - | - |
| 1777416896 | 16.11° C | 64% | 1016.2 hPa | 0 mm | - | - | - |
| 1777415672 | 16.67° C | 64% | 1016.2 hPa | 0 mm | - | - | - |
| 1777413268 | 16.67° C | 64% | 1016.2 hPa | 0 mm | - | - | - |
| 1777412405 | 16.67° C | 65% | 1016.2 hPa | 0 mm | - | - | - |
| 1777410868 | 17.22° C | 64% | 1016.2 hPa | 0 mm | - | - | - |
| 1777410632 | 17.22° C | 64% | 1016.3 hPa | 0 mm | - | - | - |
| 1777407902 | 17.78° C | 63% | 1016.3 hPa | 0 mm | - | - | - |
| 1777406075 | 18.33° C | 63% | 1016.3 hPa | 0 mm | - | - | - |
| 1777405494 | 18.33° C | 63% | 1016.3 hPa | 0 mm | - | - | - |
* Rain latest hour (hover to see other rain measurements)
** Current wind speed in m/s (hover to see current wind gust speed)